Regional Weather Roundup
Issued by NWS

Home | Current Version | Previous Version | Text Only | Print | Product List | Glossary Off
Versions: 1 2 3 4 5 6 7 8 9 10 11 12 13 14 15 16 17 18 19 20 21 22 23 24 25 26 27 28 29 30 31 32 33 34 35 36 37 38 39 40 41 42 43 44 45 46 47 48 49 50

000
ASUS43 KFSD 051110
RWRSD

WEATHER ROUNDUP FOR SOUTH DAKOTA
NATIONAL WEATHER SERVICE SIOUX FALLS SD
600 AM CDT SUN JUL 05 2015

NOTE: "FAIR" INDICATES FEW OR NO CLOUDS BELOW 12,000 FEET WITH NO
SIGNIFICANT WEATHER AND/OR OBSTRUCTIONS TO VISIBILITY.


SDZ001>005-009-010-012>017-051200-
NORTHWEST AND NORTH CENTRAL SOUTH DAKOTA

CITY           SKY/WX    TMP DP  RH WIND       PRES   REMARKS
BUFFALO          N/A     65  59  81 NE3       29.68S
FAITH            N/A     67  61  81 S12       29.72F
MOBRIDGE       CLEAR     70  68  93 E13       29.71R
$$

SDZ012>016-024>037-041>051-057-063-072>074-051200-
SOUTHWEST AND SOUTH CENTRAL SOUTH DAKOTA

CITY           SKY/WX    TMP DP  RH WIND       PRES   REMARKS
RAPID CTY ARPT CLEAR     65  62  90 SE5       29.78S
PIERRE         CLEAR     64  62  93 NE3       29.72R
CUSTER         PTCLDY    59  54  83 CALM      29.97R
ELLSWORTH AFB  CLEAR     67  62  83 S8        29.77S
PHILIP         CLEAR     69  61  75 SW5       29.74S
PINE RIDGE     CLEAR     73  62  68 CALM      29.82R
SPEARFISH      FAIR      70  50  49 S8        29.81S
WINNER         FAIR      69  63  81 NE7       29.75R
$$

SDZ004>011-016>023-039-040-051200-
NORTHEAST SOUTH DAKOTA

CITY           SKY/WX    TMP DP  RH WIND       PRES   REMARKS
ABERDEEN       PTCLDY    69  64  84 MISG      29.73F
WATERTOWN      LGT RAIN  69  65  86 S20G28    29.78F
BROOKINGS      CLOUDY    68  63  83 S15       29.93R THUNDER
SISSETON         N/A     71  64  78 S9        29.75F
$$

SDZ017-020-022-023-036>040-048>070-051200-
SOUTHEAST SOUTH DAKOTA

CITY           SKY/WX    TMP DP  RH WIND       PRES   REMARKS
SIOUX FALLS    CLOUDY    69  63  81 S10       29.90R THUNDER
HURON          PTCLDY    70  66  87 SE14G23   29.78F
CHAMBERLAIN    CLEAR     67  65  93 E3        29.76S
MITCHELL       PTCLDY    69  65  86 SE14      29.82R
YANKTON        CLOUDY    70  64  83 S18       29.86R
$$

ABBREVIATIONS USED IN REMARKS
   TC - TEMPERATURE IN CELSIUS
  WCI - WIND CHILL INDEX
   HX - HEAT INDEX
  VSB - VISIBILITY




USA.gov is the U.S. government's official web portal to all federal, state and local government web resources and services.